Notices

What's New in latest Release from April 7th, 2021:

- Updated Glossary, including Speed of Maximum Gust, and Total Hourly Precipitation

- Updated national and regional climate services offices contacts and prices information

- Addition of station inventory lists for 1981-2010, 1971-2000, and 1961-1990 Normals.

If you haven't already, please take our survey and provide feedback about our website: https://eccc.sondage-survey.ca/f/LanguageSelection.aspx?s=442ca660-fcf1-47c0-95a9-59707d6fd709

Hourly Data Report for November 05, 2019

SHEARWATER RCS
NOVA SCOTIA
Current Station Operator: ECCC - MSC

44°37'47.000" N
63°30'48.000" W
24.00 m
8205092
71264
AAW

Download Data

Hourly Data (November 2019)
Hourly Data Report for November 5, 2019
TIME
LST
Temp Definition
°C
Dew Point Definition
°C
Rel Hum Definition
%
Precip. Amount Definition
mm

Wind Dir Definition
10's deg

Wind Spd Definition
km/h
Visibility Definition
km
Stn Press Definition
kPa
Hmdx Definition


Wind Chill Definition


Weather Definition


00:00 4.2 -1.1 69 0.0 5 9   102.77     LegendNANA
01:00 3.2 -0.5 77 0.0 6 7   102.77     LegendNANA
02:00 3.2 -0.6 76 0.0 5 8   102.76     LegendNANA
03:00 2.8 -0.3 80 0.0 2 2   102.75     LegendNANA
04:00 2.3 -0.3 83 0.0 0 1   102.80     LegendNANA
05:00 2.9 0.7 85 0.0 0 1   102.81     LegendNANA
06:00 2.8 0.8 87 0.0 7 2   102.83     LegendNANA
07:00 2.8 0.9 87 0.0   0   102.85     LegendNANA
08:00 5.3 3.7 89 0.0 19 4   102.90     LegendNANA
09:00 9.8 5.4 74 0.0 18 8   102.91     LegendNANA
10:00 11.0 5.2 68 0.0 19 17   102.87     LegendNANA
11:00 11.4 5.6 68 0.0 18 21   102.84     LegendNANA
12:00 12.0 6.0 67 0.0 19 21   102.76     LegendNANA
13:00 12.0 5.8 66 0.0 19 17   102.70     LegendNANA
14:00 12.7 6.3 65 0.0 18 24   102.61     LegendNANA
15:00 11.9 7.1 72 0.0 17 21   102.58     LegendNANA
16:00 11.4 7.8 78 0.0 16 17   102.55     LegendNANA
17:00 11.2 9.1 87 0.0 16 18   102.47     LegendNANA
18:00 11.2 9.2 87 0.0 15 19   102.36     LegendNANA
19:00 11.7 9.5 87 0.0 15 19   102.30     LegendNANA
20:00 11.7 10.0 89 0.0 15 18   102.15     LegendNANA
21:00 12.1 10.4 89 0.0 15 19   102.10     LegendNANA
22:00 12.6 10.7 88 0.0 16 20   101.99     LegendNANA
23:00 12.4 10.8 90 0.0 15 20   101.81     LegendNANA

Notes on Data Quality.

Legend

  • E = Estimated
  • M = Missing
  • NA = Not Available*
  • [empty] = Indicates an unobserved value
Date modified: